Regional Weather Roundup
Issued by NWS

Home | Current Version | Previous Version | Graphics & Text | Print | Product List | Glossary On
Versions: 1 2 3 4 5 6 7 8 9 10 11 12 13 14 15 16 17 18 19 20 21 22 23 24 25 26 27 28 29 30 31 32 33 34 35 36 37 38 39 40 41 42 43 44 45 46 47 48 49 50
000
ASUS44 KMEG 231110
RWRTN
TENNESSEE HOURLY STATE WEATHER ROUNDUP
NATIONAL WEATHER SERVICE MEMPHIS TN
500 AM CST SUN NOV 23 2014

TNZ002-004-019-021-049-052-054-088>092-231200-
WEST TENNESSEE

CITY           SKY/WX    TMP DP  RH WIND       PRES   REMARKS
MEMPHIS INTL   CLOUDY    60  54  80 SE14G20   29.77F
NWS MEMPHIS      N/A     60 N/A N/A MISG        N/A
JACKSON        CLOUDY    57  54  88 SE6       29.83F
DYERSBURG      CLOUDY    57  45  62 SE12      29.82F
UNION CITY     CLOUDY    55  50  82 SE8       29.82F
PARIS          CLOUDY    54  46  76 SE7       29.86F
HUNTINGDON     CLOUDY    56  50  80 SE8       29.86F
LEXINGTON      CLOUDY    55  52  88 CALM      29.87F
SAVANNAH       CLOUDY    57  52  82 S8        29.87F
$$

TNZ008-025-027-028-033-062-065-066-231200-
NORTH MIDDLE TENNESSEE

CITY           SKY/WX    TMP DP  RH WIND       PRES   REMARKS
NASHVILLE      CLOUDY    55  41  59 SE6       29.95S
CLARKSVILLE    MOCLDY    53  41  63 SE8       29.91F
SMYRNA         MOCLDY    54  42  63 CALM      29.96S
COOKEVILLE     CLOUDY    55  46  71 S9        29.97F
CROSSVILLE     CLOUDY    53  39  59 SE5       30.02F
$$

TNZ061-075-076-078-094-096-097-231200-
SOUTH MIDDLE TENNESSEE

CITY           SKY/WX    TMP DP  RH WIND       PRES   REMARKS
FAYETTEVILLE   CLOUDY    54  46  76 N22G45    29.93F
TULLAHOMA      MOCLDY    54  46  76 SE10      29.95F
WINCHESTER     CLOUDY    54  46  76 E13       29.96S
MCMINNVILLE    PTCLDY    55  48  76 VRB6      29.96S
SHELBYVILLE    PTCLDY    55  48  76 SE8       29.94F
$$

TNZ017-018-042-046-047-231200-
NORTHEAST TENNESSEE

CITY           SKY/WX    TMP DP  RH WIND       PRES   REMARKS
TRI CITIES     CLOUDY    36  27  69 CALM      30.16S
ELIZABETHTON   SUNNY     39  32  75 NE6       30.15F WCI  35
$$

TNZ012-013-036-069-073-074-231200-
CENTRAL EAST TENNESSEE

CITY           SKY/WX    TMP DP  RH WIND       PRES   REMARKS
KNOXVILLE      CLOUDY    46  32  58 N8        30.07F
OAK RIDGE      CLOUDY    45  36  70 CALM      30.08F
GATLINBURG     PTSUNNY   36  32  87 CALM      30.07F
MORRISTOWN     CLOUDY    43  30  61 E6        30.09F
$$

TNZ083-085-099-231200-
SOUTHEAST TENNESSEE

CITY           SKY/WX    TMP DP  RH WIND       PRES   REMARKS
CHATTANOOGA    LGT RAIN  54  46  74 S5        30.03F
$$

SKY/WX REPORTED AS FAIR MEANS FEW OR NO CLOUDS BELOW
12 THOUSAND FEET.




USA.gov is the U.S. government's official web portal to all federal, state and local government web resources and services.